ネオワイズ彗星

P/2015 J3 ( NEOWISE )

English version
Home page
Updated on November 3, 2015

---------------------------------------------------------------------

・ プロフィール

発見日 2015年5月15日
発見光度 19等
発見者 Near-Earth Object Wide-field Infrared Survey Explorer (NEOWISE)

・ 写真集

・ 軌道要素

Epoch 2015 Feb. 27.0 TT = JDT 2457080.5
T 2015 Mar. 3.76415 TT                                  MPCW
q   1.4940793            (2000.0)            P               Q
n   0.16076591     Peri.  129.29188     -0.48194959     +0.86626339
a   3.3497063      Node   111.42127     -0.84111930     -0.41534255
e   0.5539671      Incl.    8.12540     -0.24544431     -0.27762981
P   6.13
From 107 observations 2015 May 15-Sept. 7, mean residual 0".4.

・ 光度変化

        m1 = 16.0 + 5 logΔ + 10.0 log r

---------------------------------------------------------------------

軌道要素はM.P.E.C. 2015-S97に掲載されたものです。
光度グラフはComet for Windowsで作成したものです。

---------------------------------------------------------------------

Copyright(C) Seiichi Yoshida (comet@aerith.net). All rights reserved.